User: anonymous   Login
Location: Unspecified
(0.0000°N, 0.0000°E)
Time: 00:03:22
(UTC+00:00)
Language:

STARLINK-32331 - Orbit

View from above orbital plane
View from above orbital plane
View from above satellite
View from above satellite

Ground track
Ground track

The orbit is defined by the following mean orbital elements,

1 61623U          26145.24204286 +.00000000 +00000-0 -66482-5 0 00009
2 61623  43.0024  85.6814 0001142 262.7290  97.3432 15.27580349    03
Epoch (UTC): 25 May 2026 05:48:32
Eccentricity: 0.0001142
inclination: 43.0024°
perigee height: 482 km
apogee height: 484 km
right ascension of ascending node: 85.6814°
argument of perigee: 262.7290°
revolutions per day: 15.27580349
mean anomaly at epoch: 97.3432°

The dashed part of the orbit path shows where the satellite is in the earth's shadow,  

DLR